When you browse on this site, cookies collect data to enhance your experience and personalize the content and advertising you see.
Visit our Privacy Policy to learn more. By continuing to use the site, you agree to this use of cookies and data.
  • In Hungary
  • List of Countries
  • For 7 days
  • Water Temperature
  • Satellite Maps
  • Weather Map
  • News
  • Weather Widgets
  • user-avatar
    Login

    Hourly Weather Marbella

    Today, 24 January, Thursday

    Time Temperature Precipitation Wind Pressure Humidity
    00:00 +12°C° 0 mm 4 mps 755 mmHg 86%
    01:00 +12°C° 0 mm 4 mps 754 mmHg 87%
    02:00 +12°C° 0 mm 4 mps 754 mmHg 87%
    03:00 +12°C° 0 mm 4 mps 754 mmHg 88%
    04:00 +12°C° 0 mm 4 mps 754 mmHg 87%
    05:00 +12°C° 0 mm 4 mps 753 mmHg 87%
    06:00 +12°C° 0 mm 4 mps 753 mmHg 87%
    07:00 +13°C° 0 mm 3 mps 753 mmHg 85%
    08:00 +13°C° 0 mm 3 mps 754 mmHg 84%
    09:00 +14°C° 0 mm 3 mps 754 mmHg 82%
    10:00 +16°C° 0 mm 3 mps 754 mmHg 75%
    11:00 +18°C° 0 mm 3 mps 754 mmHg 68%
    12:00 +19°C° 0 mm 3 mps 754 mmHg 60%
    13:00 +20°C° 0 mm 3 mps 754 mmHg 59%
    14:00 +20°C° 0 mm 3 mps 753 mmHg 57%
    15:00 +20°C° 0 mm 3 mps 753 mmHg 56%
    16:00 +19°C° 0 mm 3 mps 753 mmHg 62%
    17:00 +17°C° 0 mm 3 mps 754 mmHg 68%
    18:00 +16°C° 0 mm 3 mps 754 mmHg 74%
    19:00 +14°C° 0 mm 3 mps 754 mmHg 75%
    20:00 +14°C° 0 mm 3 mps 755 mmHg 76%
    21:00 +14°C° 0 mm 3 mps 755 mmHg 77%
    22:00 +14°C° 0 mm 3 mps 755 mmHg 77%
    23:00 +13°C° 0 mm 3 mps 756 mmHg 77%

    Tomorrow, 25 January, Friday

    Time Temperature Precipitation Wind Pressure Humidity
    00:00 +13°C° 0 mm 4 mps 756 mmHg 78%
    01:00 +13°C° 0 mm 4 mps 756 mmHg 77%
    02:00 +13°C° 0 mm 3 mps 756 mmHg 77%
    03:00 +13°C° 0 mm 3 mps 756 mmHg 76%
    04:00 +13°C° 0 mm 3 mps 756 mmHg 73%
    05:00 +13°C° 0 mm 3 mps 756 mmHg 70%
    06:00 +13°C° 0 mm 3 mps 756 mmHg 67%
    07:00 +13°C° 0 mm 3 mps 756 mmHg 64%
    08:00 +15°C° 0 mm 2 mps 757 mmHg 61%
    09:00 +16°C° 0 mm 2 mps 757 mmHg 57%
    10:00 +17°C° 0 mm 2 mps 757 mmHg 52%
    11:00 +20°C° 0 mm 1 mps 758 mmHg 47%
    12:00 +22°C° 0 mm 1 mps 758 mmHg 42%
    13:00 +22°C° 0 mm 1 mps 757 mmHg 43%
    14:00 +21°C° 0 mm 2 mps 757 mmHg 44%
    15:00 +21°C° 0 mm 2 mps 757 mmHg 45%
    16:00 +19°C° 0 mm 2 mps 757 mmHg 52%
    17:00 +18°C° 0 mm 1 mps 757 mmHg 59%
    18:00 +16°C° 0 mm 1 mps 757 mmHg 66%
    19:00 +15°C° 0 mm 2 mps 757 mmHg 65%
    20:00 +15°C° 0 mm 2 mps 758 mmHg 65%
    21:00 +14°C° 0 mm 2 mps 758 mmHg 65%
    22:00 +14°C° 0 mm 2 mps 758 mmHg 63%
    23:00 +14°C° 0 mm 2 mps 758 mmHg 62%

    Day after tomorrow, 26 January, Saturday

    Time Temperature Precipitation Wind Pressure Humidity
    00:00 +14°C° 0 mm 2 mps 758 mmHg 60%
    01:00 +14°C° 0 mm 2 mps 758 mmHg 60%
    02:00 +14°C° 0 mm 2 mps 758 mmHg 60%
    03:00 +13°C° 0 mm 2 mps 758 mmHg 60%
    04:00 +13°C° 0 mm 2 mps 758 mmHg 60%
    05:00 +13°C° 0 mm 2 mps 758 mmHg 60%
    06:00 +13°C° 0 mm 2 mps 758 mmHg 61%
    07:00 +14°C° 0 mm 2 mps 758 mmHg 58%
    08:00 +14°C° 0 mm 2 mps 759 mmHg 56%
    09:00 +15°C° 0 mm 1 mps 759 mmHg 53%
    10:00 +17°C° 0 mm 2 mps 759 mmHg 49%
    11:00 +18°C° 0 mm 2 mps 759 mmHg 46%
    12:00 +20°C° 0 mm 3 mps 759 mmHg 42%
    13:00 +20°C° 0 mm 3 mps 759 mmHg 46%
    14:00 +20°C° 0 mm 3 mps 758 mmHg 50%
    15:00 +20°C° 0 mm 3 mps 758 mmHg 54%
    16:00 +18°C° 0 mm 2 mps 758 mmHg 63%
    17:00 +16°C° 0 mm 2 mps 758 mmHg 72%
    18:00 +14°C° 0 mm 1 mps 758 mmHg 81%
    19:00 +14°C° 0 mm 1 mps 758 mmHg 81%
    20:00 +14°C° 0 mm 1 mps 758 mmHg 82%
    21:00 +13°C° 0 mm 1 mps 759 mmHg 82%
    22:00 +13°C° 0 mm 1 mps 759 mmHg 81%
    23:00 +13°C° 0 mm 1 mps 759 mmHg 79%

    27 January, Sunday

    Time Temperature Precipitation Wind Pressure Humidity
    00:00 +13°C° 0 mm 1 mps 759 mmHg 78%
    01:00 +13°C° 0 mm 1 mps 758 mmHg 77%
    02:00 +13°C° 0 mm 2 mps 758 mmHg 75%
    03:00 +13°C° 0 mm 2 mps 758 mmHg 74%
    04:00 +13°C° 0 mm 2 mps 758 mmHg 72%
    05:00 +11°C° 0 mm 3 mps 758 mmHg 70%
    06:00 +11°C° 0 mm 3 mps 758 mmHg 67%
    07:00 +12°C° 0 mm 3 mps 758 mmHg 64%
    08:00 +13°C° 0 mm 3 mps 758 mmHg 61%
    09:00 +14°C° 0 mm 3 mps 758 mmHg 57%
    10:00 +15°C° 0 mm 4 mps 758 mmHg 53%
    11:00 +18°C° 0 mm 4 mps 758 mmHg 48%
    12:00 +20°C° 0 mm 4 mps 758 mmHg 44%
    13:00 +20°C° 0 mm 5 mps 758 mmHg 44%
    14:00 +20°C° 0 mm 5 mps 757 mmHg 43%
    15:00 +20°C° 0 mm 5 mps 757 mmHg 43%
    16:00 +17°C° 0 mm 5 mps 757 mmHg 49%
    17:00 +15°C° 0 mm 4 mps 757 mmHg 56%
    18:00 +13°C° 0 mm 4 mps 757 mmHg 63%
    19:00 +12°C° 0 mm 4 mps 758 mmHg 66%
    20:00 +12°C° 0 mm 3 mps 758 mmHg 69%
    21:00 +11°C° 0 mm 3 mps 759 mmHg 72%
    22:00 +11°C° 0 mm 3 mps 759 mmHg 71%
    23:00 +10°C° 0 mm 3 mps 759 mmHg 71%

    28 January, Monday

    Time Temperature Precipitation Wind Pressure Humidity
    00:00 +10°C° 0 mm 3 mps 759 mmHg 70%
    01:00 +10°C° 0 mm 3 mps 760 mmHg 68%
    02:00 +10°C° 0 mm 4 mps 760 mmHg 66%
    03:00 +8°C° 0 mm 4 mps 760 mmHg 65%
    04:00 +8°C° 0 mm 4 mps 760 mmHg 63%
    05:00 +8°C° 0 mm 4 mps 760 mmHg 62%
    06:00 +9°C° 0 mm 3 mps 760 mmHg 60%
    07:00 +10°C° 0 mm 3 mps 761 mmHg 56%
    08:00 +10°C° 0 mm 3 mps 761 mmHg 51%
    09:00 +11°C° 0 mm 3 mps 762 mmHg 46%
    10:00 +13°C° 0 mm 3 mps 762 mmHg 42%
    11:00 +16°C° 0 mm 3 mps 762 mmHg 38%
    12:00 +17°C° 0 mm 3 mps 762 mmHg 34%
    13:00 +18°C° 0 mm 3 mps 762 mmHg 34%
    14:00 +18°C° 0 mm 3 mps 761 mmHg 34%
    15:00 +18°C° 0 mm 3 mps 761 mmHg 34%
    16:00 +16°C° 0 mm 3 mps 761 mmHg 40%
    17:00 +14°C° 0 mm 3 mps 761 mmHg 46%
    18:00 +12°C° 0 mm 4 mps 761 mmHg 52%
    19:00 +12°C° 0 mm 3 mps 762 mmHg 55%
    20:00 +11°C° 0 mm 3 mps 762 mmHg 57%
    21:00 +11°C° 0 mm 3 mps 762 mmHg 60%
    22:00 +11°C° 0 mm 3 mps 762 mmHg 63%
    23:00 +11°C° 0 mm 3 mps 762 mmHg 67%

    29 January, Tuesday

    Time Temperature Precipitation Wind Pressure Humidity
    00:00 +11°C° 0 mm 3 mps 762 mmHg 70%
    01:00 +10°C° 0 mm 3 mps 762 mmHg 73%
    02:00 +10°C° 0 mm 3 mps 762 mmHg 76%
    03:00 +10°C° 0 mm 3 mps 762 mmHg 79%
    04:00 +10°C° 0 mm 3 mps 761 mmHg 79%
    05:00 +10°C° 0 mm 3 mps 761 mmHg 80%
    06:00 +10°C° 0 mm 3 mps 761 mmHg 80%
    07:00 +10°C° 0 mm 3 mps 762 mmHg 77%
    08:00 +11°C° 0 mm 3 mps 762 mmHg 73%
    09:00 +12°C° 0 mm 3 mps 762 mmHg 70%
    10:00 +14°C° 0 mm 3 mps 762 mmHg 63%
    11:00 +17°C° 0 mm 3 mps 762 mmHg 57%
    12:00 +18°C° 0 mm 3 mps 763 mmHg 50%
    13:00 +19°C° 0 mm 3 mps 762 mmHg 49%
    14:00 +19°C° 0 mm 3 mps 762 mmHg 47%
    15:00 +19°C° 0 mm 3 mps 761 mmHg 46%
    16:00 +17°C° 0 mm 3 mps 761 mmHg 53%
    17:00 +16°C° 0 mm 3 mps 762 mmHg 60%
    18:00 +13°C° 0 mm 3 mps 762 mmHg 67%
    19:00 +12°C° 0 mm 3 mps 762 mmHg 68%
    20:00 +12°C° 0 mm 3 mps 762 mmHg 68%
    21:00 +11°C° 0 mm 3 mps 762 mmHg 69%
    22:00 +11°C° 0 mm 3 mps 762 mmHg 68%
    23:00 +11°C° 0 mm 3 mps 763 mmHg 67%
    Show more